Location: *
(48.4333°N, 5.0333°W)
Time: 12:48:58
(UTC+00:00)

LilacSat-2 - Visible Passes

Search period start: 23 October 2021 00:00
Search period end: 02 November 2021 00:00
Orbit: 510 x 534 km, 97.5° (Epoch: 23 October)

Date Brightness Start Highest point End Pass type
(mag) Time Alt. Az. Time Alt. Az. Time Alt. Az.
23 Oct ? 06:20:38 10° NNE 06:24:24 89° ESE 06:28:09 10° SSW visible
23 Oct ? 18:42:48 10° W 18:43:24 10° W 18:44:00 10° WNW visible
24 Oct ? 06:07:46 10° NNE 06:11:30 63° ESE 06:15:13 10° S visible
24 Oct ? 18:28:17 10° SW 18:30:23 14° W 18:32:28 10° WNW visible
25 Oct ? 05:54:58 10° NNE 05:58:35 44° E 06:02:10 10° S visible
25 Oct ? 18:14:36 10° SW 18:17:22 19° W 18:20:09 10° NW visible
26 Oct ? 05:42:14 10° NNE 05:45:38 31° E 05:49:00 10° SSE visible
26 Oct ? 18:01:11 10° SSW 18:04:23 26° W 18:07:35 10° NW visible
27 Oct ? 05:29:36 10° NE 05:32:39 23° E 05:35:41 10° SSE visible
27 Oct ? 17:47:56 10° SSW 17:51:25 36° W 17:54:55 10° NNW visible
28 Oct ? 05:17:07 10° NE 05:19:39 17° E 05:22:11 10° SE visible
28 Oct ? 17:34:48 10° S 17:38:28 50° W 17:42:09 10° NNW visible
29 Oct ? 05:04:56 10° ENE 05:06:38 13° E 05:08:19 10° ESE visible
30 Oct ? 06:24:32 10° NNE 06:28:18 83° WNW 06:32:04 10° SSW visible
31 Oct ? 06:11:38 10° NNE 06:15:24 70° ESE 06:19:09 10° S visible
31 Oct ? 18:32:33 10° WSW 18:34:18 13° W 18:36:04 10° WNW visible
01 Nov ? 05:58:48 10° NNE 06:02:28 49° E 06:06:07 10° S visible
01 Nov ? 18:18:42 10° SW 18:21:16 17° W 18:23:51 10° NW visible
